Regional Weather Roundup
Issued by NWS Cleveland, OH

Home | Current Version | Previous Version | Text Only | Print | Product List | Glossary Off
Versions: 1 2 3 4 5 6 7 8 9 10 11 12 13 14 15 16 17 18 19 20 21 22 23 24 25 26 27 28 29 30 31 32 33 34 35 36 37 38 39 40 41 42 43 44 45 46 47 48 49 50

000
ASUS41 KCLE 310310
RWRCLE
OHIO REGIONAL WEATHER ROUNDUP
NATIONAL WEATHER SERVICE WILMINGTON, OH
1100 PM EDT MON MAY 30 2016

NOTE: "FAIR" INDICATES FEW OR NO CLOUDS BELOW 12,000 FEET WITH NO
SIGNIFICANT WEATHER AND/OR OBSTRUCTIONS TO VISIBILITY.

OHZ001>008-015>018-024>027-034-035-043-044-310400-
   NORTHWEST OHIO

CITY           SKY/WX    TMP DP  RH WIND       PRES   REMARKS
DEFIANCE       FAIR      72  54  53 NW5       29.99R
FINDLAY        FAIR      73  52  47 CALM      29.98R
TOLEDO EXPRESS FAIR      66  55  67 CALM      29.98R
TOLEDO EXEC    FAIR      72  53  51 CALM      29.99R
LIMA           FAIR      72  57  59 CALM      29.99R
$$

OHZ009>014-019>023-028>033-038-089-310400-
   NORTHEAST OHIO

CITY           SKY/WX    TMP DP  RH WIND       PRES   REMARKS
CLE-HOPKINS    FAIR      70  56  61 S5        30.00S
CLE-LAKEFRONT  FAIR      75  54  47 SE5       29.97S
CUY CO. ARPT   PTCLDY    66  59  77 E5        30.00R
LORAIN-ELYRIA  FAIR      67  58  72 CALM      29.99R
ASHTABULA      FAIR      61  59  93 CALM      30.01R
AKRON-CANTON   FAIR      68  54  60 E5        30.01R
WOOSTER        FAIR      63  56  78 CALM      30.01R
MANSFIELD      FAIR      70  58  65 CALM      30.01R
YOUNGSTOWN     FAIR      60  54  80 E3        30.01R
$$

OHZ042-051>053-060>062-070>072-077>081-310400-
  SOUTHWEST OHIO

CITY           SKY/WX    TMP DP  RH WIND       PRES   REMARKS
CINC-COVINGTON FAIR      68  58  70 SE3       30.00R
CINC-LUNKEN    FAIR      66  62  87 CALM      29.99R
HAMILTON       FAIR      66  60  81 CALM      29.99R
DAYTON         FAIR      74  56  53 S3        30.00S
WRIGHT-PAT AFB NOT AVBL
DAYTON GENERAL FAIR      73  54  51 CALM      29.99R
WILMINGTON     FAIR      69  64  84 CALM      30.00R
$$

OHZ036-037-039>041-045>050-054>059-063>069-073>076-082>088-310400-
  CENTRAL AND SOUTHEAST OHIO

CITY           SKY/WX    TMP DP  RH WIND       PRES   REMARKS
COLUMBUS       FAIR      72  57  59 CALM      29.98R
OSU AIRPORT    FAIR      70  54  56 CALM      29.99R
BOLTON FIELD   FAIR      67  60  80 CALM      30.00R
RICKENBACK AFB FAIR      71  58  64 CALM      29.98S
NEWARK         FAIR      65  59  81 CALM      29.99R
MARION         FAIR      70  55  59 CALM      30.00R
LANCASTER      FAIR      63  58  83 CALM      30.00R
ZANESVILLE     FAIR      68  60  75 S5        29.99S
NEW PHILLY     FAIR      69  60  73 E3        30.00S
$$




USA.gov is the U.S. government's official web portal to all federal, state and local government web resources and services.